Location: Eastlake (historical)
(39.0077°N, 122.6678°W)
Time: 06:30:41
(UTC+00:00)

Cosmos 1461 - Pass Details

Date: 25 November 2020
Orbit: 501 x 663 km, 65.0° (Epoch: 27 January)

Event Time Altitude Azimuth Distance (km) Brightness Sun altitude
Exits shadow 13:04:02 23° 358° (N) 1,369 4.7 -23.2°
Maximum altitude 13:06:25 41° 53° (NE) 943 4.2 -22.7°
Drops below altitude 10° 13:10:42 10° 124° (ESE) 1,996 6.6 -21.9°
Sets 13:13:02 0° 131° (SE) 2,873 7.4 -21.4°
